Regional Weather Roundup
Issued by NWS

Home | Current Version | Previous Version | Graphics & Text | Print | Product List | Glossary On
Versions: 1 2 3 4 5 6 7 8 9 10 11 12 13 14 15 16 17 18 19 20 21 22 23 24 25 26 27 28 29 30 31 32 33 34 35 36 37 38 39 40 41 42 43 44 45 46 47 48 49 50
000
ASUS43 KLMK 241910
RWRKY
KENTUCKY REGIONAL WEATHER ROUNDUP
NATIONAL WEATHER SERVICE LOUISVILLE KY
300 PM EDT SAT SEP 24 2016

NOTE "FAIR" INDICATES FEW OR NO CLOUDS BELOW 12,000 FEET
WITH NO SIGNIFICANT WEATHER AND/OR OBSTRUCTIONS TO VISIBILITY.

KYZ001>023-026-027-061>063-070>075-242000-
WESTERN AND SOUTH CENTRAL KENTUCKY

CITY           SKY/WX    TMP DP  RH WIND       PRES   REMARKS
PADUCAH        SUNNY     92  65  40 CALM      30.06F HX  94
HENDERSON      PTSUNNY   88  64  45 NE3       30.07F
OWENSBORO      MOSUNNY  N/A N/A N/A VRB5        N/A
HOPKINSVILLE   SUNNY     89  65  44 VRB3      30.08F HX  91
BOWLING GREEN  SUNNY     90  64  42 VRB3      30.10F HX  91
GLASGOW        MOSUNNY   88  62  42 CALM      30.11F
$$

KYZ024-025-028>034-038-045-046-053-242000-
NORTH CENTRAL KENTUCKY

CITY           SKY/WX    TMP DP  RH WIND       PRES   REMARKS
LOUISVILLE/SDF MOSUNNY   90  61  37 CALM      30.09F HX  90
LOUISVILLE/LOU PTSUNNY   88  62  41 SW5       30.10F
FORT KNOX      SUNNY     87  64  45 VRB5      30.09F
$$

KYZ035>037-039>044-047>052-055>060-089>105-242000-
NORTHEAST KENTUCKY

CITY           SKY/WX    TMP DP  RH WIND       PRES   REMARKS
LEXINGTON      PTSUNNY   87  62  43 N9        30.11F
COVINGTON      MOSUNNY   82  68  62 N9        30.14F
FRANKFORT      MOSUNNY   90  63  40 N7        30.10F HX  91
$$

KYZ054-064>069-076>088-106>120-242000-
SOUTHEAST KENTUCKY

CITY           SKY/WX    TMP DP  RH WIND       PRES   REMARKS
JACKSON        SUNNY     87  63  44 VRB3      30.13F
LONDON         MOSUNNY   87  59  38 CALM      30.12F
SOMERSET       MOSUNNY   86  59  39 NE3       30.12F
MIDDLESBORO    MOSUNNY   86  64  48 N7        30.11F
MONTICELLO     CLEAR     87  62  43 VRB5      30.13F
$$




USA.gov is the U.S. government's official web portal to all federal, state and local government web resources and services.